Location: Waning Moon II Observatory
(30.3730°N, 89.7620°W)
Time: 04:54:18
(UTC-05:00)

Meteor 1-21 - Visible Passes

Search period start: 26 April 2017 00:00
Search period end: 06 May 2017 00:00
Orbit: 843 x 889 km, 81.2° (Epoch: 24 April)

Date Brightness Start Highest point End Pass type
(mag) Time Alt. Az. Time Alt. Az. Time Alt. Az.
26 Apr 5.4 03:27:47 34° NNW 03:27:47 34° NNW 03:30:57 10° N visible
27 Apr 5.6 03:20:39 32° N 03:20:39 32° N 03:23:36 10° N visible
28 Apr 5.7 03:13:29 30° N 03:13:29 30° N 03:16:16 10° N visible
29 Apr 5.8 03:06:19 28° N 03:06:19 28° N 03:08:55 10° N visible
30 Apr 5.9 02:59:07 26° N 02:59:07 26° N 03:01:34 10° N visible
01 May 6.0 02:51:53 25° N 02:51:53 25° N 02:54:14 10° N visible
02 May 6.0 02:44:40 24° N 02:44:40 24° N 02:46:53 10° N visible
03 May 6.1 02:37:26 23° N 02:37:26 23° N 02:39:33 10° N visible
04 May 6.2 02:30:10 23° N 02:30:10 23° N 02:32:12 10° N visible
05 May 6.2 02:22:54 22° N 02:22:54 22° N 02:24:52 10° N visible
